STARLINK-11263, 60725

Orbit data source: Space-Track

STARLINK-11263, 60725 is a payload satellite owned by SpaceX/Seattle (US) in LEO that was launched on Wed, 28 Aug 2024 UTC via an FALCON 9 launch vehicle from the Air Force Eastern Test Range (AFETR). Payload-class satellites include a variety of spacecraft equipped with specific instruments for various scientific and technological missions. These include communications satellites like Starlink; space stations such as the ISS; scientific satellites like the Hubble; Earth observation satellites from companies like Planet Labs, Umbra, and HawkEye 360; GPS; miniature CubeSats for education and research; and military/defense satellites.

Loading next visibility...
Identifier
60725, 2024-152F
Orbit
LEO
Country
Flag of USUS
Related business
Manufacturer
SpaceX/Seattle
Mission
Operational Commercial Communications
Bus & Motor
STARLINK V2MD, Unknown motor
Mass
960 kg wet, ~910 kg dry
Launch date (UTC)
2024-08-28 (1 year ago)
Launch vehicle
FALCON 9
Launch site
Air Force Eastern Test Range (AFETR)
Object type
Payload
Rocket body
Debris
Shape & HBR
Box + 2 Pan, 18.1 m
Radar Cross Section
36.964 m², Large (>1 m²)

Expand to show TLE details & history
Last TLE update: 12 hours ago

TLE from 12 hours ago
0 STARLINK-11263
1 60725U 24152F   25353.46016013 -.00001116  00000-0 -43619-5 0  9992
2 60725  53.1604 151.7961 0000954  73.5238 286.5884 15.69702419 76230
Epoch: 2025-12-19T11:02Z
TLE epoch observation values (Epoch: 2025-12-19T11:02:37.835Z)
Latitude
-0.00007°
Longitude
-102.16259°
Altitude
360.48 km
Speed
7.694 km/s
True Right ascension
10h 07m 11s
True Declination
0° 00' 00"
Sunlit
Object was in full shadow at epoch
Visualization orbit readout
Latitude
Unknown
Longitude
Unknown
Altitude
Unknown
Speed
Unknown
Apparent Right ascension
Unknown
Apparent Declination
Unknown
Sunlit
N/A
Visualization observer readout
Local Sidereal Time
21:45:49
Azimuth
Unknown
Elevation
Unknown
Doppler factor
Unknown
Orbital elements
Apogee altitude
360.652 km
Perigee altitude
359.366 km
Semi-major axis
6,738.146 km
Eccentricity
0.0001
Inclination
53.1604°
RAAN
151.7961°
Arg. of periapsis
73.5238°
True anomaly
286.57792°
Mean anomaly
286.5884°
Eccentric anomaly
286.58316°
Mean motion
3.92403 °/min
Orbital period
91.74 mins
BSTAR
-0.0000043619
Loading maneuver chart data...
Computing Atmospheric mass density...
Loading historical data...
Loading historical data...
Loading historical data...
Loading historical data...
Loading historical data...
Loading historical data...
Loading historical data...

Documentation

Showing up to 5 results
|